{"data":{"norad_id":64156,"epoch":"2026-09-20T14:01:25.893408Z","epoch_age_seconds":133143,"freshness":"FRESH","line1":"1 64156U 25112L   26263.58432747  .00018059  00000+0  56024-3 0  9994","line2":"2 64156  97.2849 310.6927 0000900 104.6084 255.5259 15.33452784 72760","mean_motion":15.33452784,"eccentricity":9.0e-5,"inclination_deg":97.2849,"raan_deg":310.6927,"arg_perigee_deg":104.6084,"mean_anomaly_deg":255.5259,"bstar":0.00056024,"rev_number":7276,"period_min":93.90572797708,"perigee_km":464.90408573727,"apogee_km":466.13594399995,"semimajor_km":6843.6570148686,"source":"CELESTRAK","updated_at":"2026-09-21T09:00:35.239644Z"}}